Tracking 27079 objects as of 24-Mar-2023
HD Live streaming from Space Station
objects crossing your sky now

COSMOS 1823 DEB

Track COSMOS 1823 DEB now!
10-day predictions


NORAD ID: 39810
Int'l Code: 1987-020EJ
Perigee: 1,481.8 km
Apogee: 1,533.3 km
Inclination: 73.7 °
Period: 116.0 minutes
Semi major axis: 7878 km
RCS: 0.0123 m2 (small)
Launch date: February 20, 1987
Source: Commonwealth of Independent States (former USSR) (CIS)
Launch site: PLESETSK MISSILE AND SPACE COMPLEX (PKMTR)

Note: This is SATELLITE DEBRIS
Your satellite tracking list
Your tracking list is empty




NASA's NSSDC Master Catalog

Two Line Element Set (TLE):
1 39810U 87020EJ  23078.94449514  .00000184  00000-0  14778-2 0  9990
2 39810  73.7047 324.6862 0032664   9.9583 350.2101 12.41462648400281
Source of the keplerian elements: AFSPC